Weather in Nizhny Bestyakh

Russia / Sakha (Yakutia) Republic     61°57′32″N   129°54′41″E
temp.,
°C
wind,
m/s
gust,
m/s
humid.,
%
clouds,
%
prec.,
mm/h
press.,
hPa
HPBL,
m
28 february, sun
sun2800:00−27ne2496100 0.0 101898
03:00−28nne2395100 0.0 101675
06:00−29n3493100 0.0 1016106
09:00−28nnw2492100 0.0 1016179
12:00−24wnw2490100 0.0 1018403
15:00−22nw4689100 0.0 1019579
18:00−23wnw3798100 0.3 1021519
21:00−25wnw3797100 0.6 1023583
1 march, mon
mon100:00−26w3797100 0.3 1023509
03:00−26w3895100 0.4 1024610
06:00−27w3895100 0.1 1024545
09:00−27w4793100 0.2 1025663
12:00−25w4688100 0.1 1025866
15:00−25wnw4687100 0.2 1025935
18:00−27w2595100 0.1 1026217
21:00−29w2496100 0.1 102692
2 march, tue
tue200:00−30w2396100 0.0 102641
03:00−32w2296100 0.0 102619
06:00−33wsw1297100 0.0 102719
09:00−32wsw2296100 0.0 102690
12:00−28w2387100 0.0 1026494
15:00−27wnw2385100 0.0 1025642
18:00−30wnw1194100 0.0 102519
21:00−31w1193100 0.0 102519
3 march, wed
wed300:00−33wnw1192100 0.0 102519
03:00−32w119399 0.0 102419
06:00−33w1194100 0.0 102419
09:00−31wsw1195100 0.0 102393
12:00−28wnw129098 0.0 1021373
15:00−27wnw238799 0.1 1020573
18:00−29nw2396100 0.1 102043
21:00−31wnw2297100 0.1 102061
4 march, thu
thu400:00−31w2597100 0.1 1019166
03:00−31w3696100 0.1 1018223
06:00−31w3695100 0.1 1018356
09:00−30w3691100 0.1 1018693
12:00−29w4584100 0.1 1018939
15:00−28wnw4682100 0.1 10181040
18:00−31w3391100 0.0 101950
21:00−34wnw239496 0.0 102044